WZZ8208 LHBP-LATI

Flight info

Callsign WZZ8208
Flight time N/A
Altitude 37000
Route FAHAZ DCT KEROP DCT TORTO DCT YUYUH DCT AKIKA DCT INLOT
Aircraft A321/M-SDE1E2E3FGIJ1J4RWXY/LB1

Departure

Time 2026-05-04 09:08
Airport Budapest Liszt Ferenc International Airport (LHBP)

Arrival

Time N/A
Airport Tirana International Airport Mother Teresa (LATI)
Time Latitude Longitude Altitude Speed Heading
2026-05-04 08:55 47.43478 19.26531 457 ft 0 kts 222°
2026-05-04 09:02 47.43488 19.26545 454 ft 4 kts 223°
2026-05-04 09:02 47.43503 19.26569 454 ft 4 kts 248°
2026-05-04 09:02 47.43504 19.26603 453 ft 4 kts 297°
2026-05-04 09:02 47.43489 19.26636 454 ft 4 kts 313°
2026-05-04 09:03 47.43474 19.26659 453 ft 0 kts 312°
2026-05-04 09:05 47.43482 19.26646 455 ft 6 kts 312°
2026-05-04 09:05 47.43536 19.26559 458 ft 15 kts 312°
2026-05-04 09:06 47.43608 19.26442 458 ft 16 kts 313°
2026-05-04 09:07 47.44071 19.26463 471 ft 11 kts 88°
2026-05-04 09:08 47.44036 19.26578 470 ft 18 kts 132°
2026-05-04 09:08 47.43781 19.26989 473 ft 92 kts 132°
2026-05-04 09:08 47.43192 19.27927 481 ft 151 kts 137°
2026-05-04 09:08 47.42484 19.29067 1168 ft 150 kts 134°
2026-05-04 09:09 47.41882 19.30330 1892 ft 152 kts 123°
2026-05-04 09:09 47.41363 19.31686 2594 ft 152 kts 125°
2026-05-04 09:09 47.40851 19.33049 3294 ft 152 kts 126°
2026-05-04 09:09 47.40336 19.34418 3919 ft 158 kts 125°
2026-05-04 09:10 47.39760 19.35922 4270 ft 179 kts 125°
2026-05-04 09:10 47.39109 19.37623 4602 ft 202 kts 124°
2026-05-04 09:10 47.38329 19.39469 4877 ft 222 kts 136°
2026-05-04 09:10 47.36938 19.40537 5156 ft 239 kts 176°
2026-05-04 09:11 47.35289 19.40002 5647 ft 254 kts 213°
2026-05-04 09:11 47.34053 19.38145 6365 ft 264 kts 233°
2026-05-04 09:11 47.33114 19.35796 7181 ft 269 kts 241°
2026-05-04 09:11 47.32250 19.33276 7971 ft 274 kts 241°
2026-05-04 09:12 47.31387 19.30790 8749 ft 280 kts 239°
2026-05-04 09:12 47.30443 19.28244 9492 ft 287 kts 239°